Theta_e
324 327 327 326 324 322 321 322 324 324 323 325 325 326 325 324 323 323 322 322 323 323 322 318 323 330 333 334 334 332 327 325 323 320 318 317 316 312 310 310 310 308 307 305
326 329 325 324 323 324 324 326 327 325 324 325 326 327 325 323 323 323 322 322 322 323 323 322 318 325 332 333 334 332 328 325 323 320 319 318 313 309 309 310 309 308 306 305
325 320 323 325 326 328 328 329 327 328 325 326 327 326 321 318 319 319 321 321 322 323 324 323 320 322 329 332 333 333 328 324 322 320 317 315 310 307 306 307 307 306 305 304
322 321 321 320 323 324 324 325 327 328 329 326 323 324 323 321 321 320 320 320 319 319 320 319 318 321 327 330 332 333 329 324 320 319 315 311 310 307 308 304 303 304 304 303
311 321 325 325 323 322 324 322 323 324 326 326 322 327 321 321 320 318 319 320 319 317 317 317 316 316 321 326 329 331 330 324 319 317 315 310 312 311 307 304 302 302 302 302
312 313 313 316 319 322 319 319 318 319 321 323 320 321 320 319 318 319 321 319 317 317 316 317 316 315 317 323 326 328 329 324 318 316 315 311 312 309 303 303 302 301 301 301
315 314 312 313 315 313 314 315 320 320 324 320 315 317 318 317 318 315 313 313 314 315 315 317 317 316 314 318 325 326 327 325 318 315 314 311 311 307 304 303 302 301 299 299
315 315 316 314 316 317 317 317 319 317 315 316 314 316 314 317 312 311 311 311 312 313 314 315 316 314 313 314 318 325 326 324 318 315 313 310 311 306 305 303 302 300 299 298
317 317 313 309 310 316 318 318 314 321 320 323 319 317 316 313 311 309 308 310 312 312 313 313 315 313 312 313 318 323 325 324 318 315 312 309 310 305 304 302 300 299 297 296
312 313 312 309 311 308 310 310 317 318 323 323 321 315 319 313 312 310 308 309 310 310 311 313 314 313 310 312 321 323 324 323 317 311 309 309 306 305 301 299 298 296 296 298
309 309 307 306 309 307 307 310 311 310 313 315 314 312 314 312 313 310 308 308 309 310 310 309 313 313 310 311 314 319 320 317 310 308 307 305 304 302 299 297 296 296 298 298
307 308 309 306 306 309 309 310 308 308 307 303 307 312 313 312 312 310 309 308 309 309 310 310 311 311 309 309 310 311 311 309 308 307 305 303 300 298 297 296 296 299 296 297
306 307 307 304 309 308 310 309 308 306 306 306 307 306 307 307 307 307 307 308 309 309 309 309 309 314 312 308 308 308 308 307 304 304 302 299 298 297 296 297 299 298 296 294
305 305 305 305 304 303 303 303 304 305 305 303 305 306 305 305 305 305 306 309 308 308 308 308 309 313 313 308 307 306 306 304 303 301 299 298 298 297 299 298 296 296 296 294
306 305 306 305 304 304 304 305 303 301 303 303 302 302 304 305 305 305 309 309 309 310 311 311 312 311 311 308 306 304 304 302 301 300 299 299 299 298 296 294 294 294 294 292
306 305 302 299 302 300 299 298 298 298 298 299 301 303 304 304 307 307 306 307 308 310 310 309 310 309 308 308 305 303 302 301 301 300 299 298 296 294 293 293 293 292 292 291
303 302 300 302 297 296 296 296 297 297 298 299 301 302 305 304 304 305 305 305 308 309 308 309 309 308 307 307 304 303 301 300 299 297 297 295 294 295 294 293 292 292 291 290
301 301 300 300 296 296 296 298 301 304 303 304 305 305 304 302 302 302 304 307 309 307 307 307 308 306 306 308 303 303 300 299 297 295 295 294 296 293 292 291 291 290 290 289
298 298 298 297 297 297 297 300 301 300 300 302 302 302 302 302 302 301 303 305 305 304 306 307 306 304 305 305 302 300 299 299 297 296 294 294 293 292 292 291 290 289 289 288
298 298 298 298 298 297 296 301 300 300 302 301 299 298 299 301 304 301 301 301 302 304 304 305 304 303 303 301 299 299 298 297 298 296 295 293 293 292 291 290 289 289 289 288
298 298 299 298 298 297 297 298 299 298 298 299 298 299 299 302 302 299 300 300 302 303 302 303 302 300 300 300 298 297 296 296 296 295 294 294 292 291 290 289 288 288 287 286
297 297 297 297 297 297 297 299 300 297 298 299 299 300 300 302 299 299 300 300 304 304 304 302 297 296 297 298 296 295 294 294 294 294 293 292 291 291 290 289 288 287 287 286
297 298 298 297 298 298 299 299 298 298 299 299 299 299 300 299 298 302 302 304 302 301 301 300 296 294 293 295 295 293 293 293 293 292 291 291 290 290 289 289 287 287 287 286
296 296 298 297 297 297 297 297 297 298 297 297 297 298 298 298 299 302 302 303 301 299 298 298 297 295 294 292 294 294 292 292 291 291 290 290 290 289 288 288 287 287 286 286
296 296 297 297 298 297 297 297 297 296 296 296 297 297 297 297 301 302 302 301 298 297 297 296 297 296 294 292 292 291 291 291 291 291 290 290 289 289 288 288 287 287 287 287
296 296 297 298 297 297 297 297 296 296 296 296 296 296 296 296 301 302 301 299 297 295 294 295 294 295 293 291 291 291 291 291 291 290 290 289 289 288 288 287 286 287 287 286
Wind_Speed
5 4 8 15 18 12 9 9 12 9 12 19 19 28 28 24 23 23 21 21 21 21 21 23 25 26 27 29 33 37 39 43 42 38 37 36 39 38 42 41 38 36 34 32
3 9 11 12 13 13 13 15 15 14 11 5 17 36 33 23 24 22 19 17 19 21 19 16 21 22 27 33 35 35 39 42 46 39 37 30 33 32 41 41 38 36 36 34
15 6 6 9 7 9 12 12 14 16 16 15 18 26 24 11 21 14 13 13 13 18 21 18 13 20 25 29 34 40 40 38 41 36 31 24 28 26 30 40 40 39 37 36
10 7 17 18 13 10 16 12 15 14 8 9 2 13 33 23 28 12 15 9 12 18 17 16 14 15 20 28 33 34 32 36 37 38 35 38 38 28 28 30 30 39 38 37
7 2 3 7 10 10 6 2 6 9 10 11 25 7 16 32 29 18 8 17 21 19 18 16 16 19 20 23 27 30 29 31 34 41 39 36 33 32 29 31 32 38 39 38
5 2 3 6 4 5 2 1 4 7 7 9 26 12 19 23 20 27 22 19 20 20 19 19 17 18 21 19 23 27 32 33 37 39 41 41 38 36 34 35 34 34 39 38
3 5 2 2 4 3 4 3 4 3 5 9 11 10 17 21 20 17 22 24 24 20 19 19 19 17 20 19 22 27 32 34 38 41 42 43 41 41 42 43 39 35 37 39
1 4 3 3 3 2 3 4 4 7 13 18 20 12 13 13 18 16 16 21 22 21 20 18 20 16 20 24 23 29 33 35 37 39 41 39 38 36 35 38 39 36 34 35
1 3 2 8 2 2 3 2 7 7 18 13 15 21 19 15 14 22 25 25 26 25 23 23 19 21 24 27 27 28 34 33 34 36 34 33 33 31 31 34 34 33 33 35
3 4 1 1 2 7 5 1 2 3 5 5 4 5 6 15 13 17 19 17 23 22 24 23 21 19 24 24 24 18 27 27 28 30 31 32 31 29 27 32 34 37 39 39
4 1 4 4 1 3 4 2 3 2 3 4 4 5 5 8 13 17 20 17 19 22 18 20 20 25 21 24 17 14 18 19 25 29 29 29 32 33 36 34 33 35 39 39
1 2 4 4 4 4 6 2 3 1 2 4 7 6 3 13 16 16 20 18 19 24 21 19 17 16 14 15 13 9 6 20 26 30 32 31 32 35 35 36 36 38 36 35
7 2 3 7 5 1 3 5 4 3 2 11 7 6 14 16 17 18 18 18 17 21 23 20 18 16 9 10 12 8 6 10 18 24 27 29 32 33 35 37 38 41 40 35
8 5 5 8 9 1 7 10 7 4 6 8 13 20 22 25 21 23 22 20 18 19 20 18 15 14 13 9 12 8 8 16 20 21 25 28 30 33 37 40 43 45 45 42
7 6 9 13 12 13 14 18 19 17 19 11 23 23 26 22 24 22 19 20 20 19 16 14 12 13 16 11 10 11 14 16 21 22 23 25 26 29 33 34 35 38 40 40
3 4 4 4 9 8 15 18 19 21 20 19 22 24 23 19 17 19 19 22 20 19 16 18 17 18 18 14 15 15 17 21 23 23 23 25 28 31 31 36 37 34 37 35
6 5 2 5 1 7 10 17 15 14 18 17 18 21 13 19 20 20 22 21 20 15 19 20 16 16 18 21 17 18 18 22 24 22 28 28 28 32 35 36 37 39 37 36
5 6 3 4 3 5 4 5 6 7 13 8 11 12 14 16 22 23 20 19 15 20 20 21 18 17 26 18 17 17 21 19 21 21 22 29 33 29 28 32 33 32 32 35
7 5 3 3 5 10 14 5 2 3 17 6 8 15 16 18 24 15 14 18 22 24 18 17 24 23 25 8 13 17 17 19 17 20 23 28 29 31 34 31 31 33 35 32
9 10 7 4 5 6 2 6 7 7 15 7 8 12 18 18 15 17 22 25 27 23 21 21 22 15 12 6 7 14 18 19 20 22 23 25 30 29 28 29 32 33 32 31
5 5 13 11 8 7 11 9 3 5 10 8 14 17 16 14 12 21 21 26 24 23 24 27 17 11 9 3 7 10 12 13 15 15 19 21 26 28 27 29 29 32 28 27
10 8 6 5 5 11 12 4 6 7 10 15 18 17 18 15 18 16 21 22 21 22 20 17 11 7 7 4 10 10 10 14 19 24 23 21 24 27 31 32 30 29 31 26
5 7 5 9 8 6 6 5 7 9 14 17 17 16 14 16 18 16 20 19 17 18 14 10 10 9 2 3 9 6 9 16 21 23 24 25 25 23 29 32 31 28 29 26
5 5 5 4 16 18 14 15 14 13 16 17 16 15 12 17 18 18 18 17 14 9 10 13 8 5 3 2 4 5 13 19 21 20 21 22 23 25 26 26 28 29 28 26
6 5 8 15 23 17 17 17 17 17 13 14 13 13 15 15 15 16 15 16 12 12 13 11 9 4 9 8 7 6 12 17 18 19 21 21 21 23 22 21 24 26 29 33
9 16 10 11 16 13 19 15 14 13 14 15 16 17 14 14 14 13 12 10 10 11 14 12 11 11 6 3 6 4 8 15 18 16 18 20 21 20 22 21 18 19 24 26
Wind_Direction
189 180 205 205 211 243 284 281 283 271 279 290 285 282 287 292 283 279 276 279 282 280 279 259 253 240 231 223 213 206 199 201 199 193 190 193 195 194 201 201 202 199 198 198
180 246 240 218 221 239 260 277 286 284 274 268 299 290 289 288 276 277 275 282 284 283 279 267 249 237 221 217 212 210 207 198 198 200 197 192 187 192 198 200 202 202 199 196
231 198 94 187 212 228 240 250 268 271 293 285 282 285 297 305 289 280 295 287 289 290 288 286 261 236 224 221 214 212 207 200 197 198 188 181 174 178 186 198 199 199 198 197
263 244 247 248 249 247 269 224 245 264 287 294 335 292 302 305 293 336 305 310 331 314 316 316 301 274 231 228 224 220 208 201 195 191 188 181 178 178 196 188 187 194 197 198
206 180 158 213 230 209 248 230 257 271 268 296 272 243 287 295 299 340 44 324 346 339 335 324 318 305 278 249 230 220 216 203 195 191 193 188 187 186 178 175 182 190 194 198
234 124 249 210 178 177 90 246 297 261 239 247 269 233 267 278 305 311 326 352 345 341 334 332 336 325 313 270 235 219 211 204 197 196 193 192 189 177 168 174 175 181 187 191
191 224 112 54 233 299 265 299 313 267 195 257 299 265 245 288 299 13 350 340 337 331 332 330 336 337 326 308 250 226 208 208 200 197 197 192 192 184 177 173 178 178 177 183
164 169 64 0 87 277 306 178 226 269 277 282 288 264 265 47 3 356 354 339 329 330 333 335 339 330 326 309 283 233 217 211 200 200 198 192 191 186 183 178 179 180 178 172
75 209 71 52 34 300 36 196 342 282 260 267 259 269 269 7 4 357 345 337 332 331 329 324 334 333 330 319 301 240 221 212 202 197 195 189 187 181 180 177 174 169 165 165
140 288 136 308 129 67 98 358 350 276 281 272 295 315 295 330 335 328 326 324 318 315 317 320 321 332 326 319 321 261 226 212 196 184 185 182 174 174 172 167 163 160 159 165
149 173 197 298 192 290 310 209 173 207 237 285 311 306 242 239 280 312 305 301 307 309 309 312 316 316 322 316 321 245 213 186 171 174 173 168 166 164 163 157 153 153 160 165
139 150 285 289 337 276 226 143 120 192 295 294 256 251 281 242 272 276 293 297 294 294 303 310 299 281 302 309 317 301 203 166 167 169 168 164 158 155 153 151 154 165 160 169
167 167 302 294 137 102 172 193 176 128 209 247 255 264 261 276 282 295 296 302 293 289 288 291 296 293 285 304 315 301 196 157 155 158 155 151 150 150 150 156 168 166 164 169
159 174 204 248 271 183 260 266 253 202 258 272 260 271 291 288 299 303 310 310 301 296 293 290 299 300 290 249 241 218 191 162 157 155 153 152 155 158 168 168 164 165 168 172
171 226 220 241 256 273 284 280 291 264 253 257 269 284 281 292 297 300 303 313 318 315 323 314 311 311 303 265 227 213 190 173 163 159 158 160 164 166 159 154 156 159 164 172
143 221 196 262 260 272 275 276 266 275 278 266 267 270 279 302 309 305 311 313 316 315 317 321 317 311 313 280 223 193 183 174 172 168 163 160 156 149 148 151 155 158 164 165
172 163 166 266 34 322 278 252 264 277 284 281 281 294 321 315 314 307 307 300 296 312 322 321 316 307 308 300 211 195 184 177 164 169 161 154 150 153 158 157 156 163 164 170
185 159 163 259 315 250 263 322 286 284 291 295 298 303 308 308 300 304 294 294 305 320 321 313 311 311 311 301 205 193 175 178 169 163 162 159 166 160 157 155 159 157 161 166
207 175 186 243 218 283 285 240 203 313 293 301 319 311 305 308 307 313 335 326 312 311 305 306 312 316 312 285 195 186 183 172 178 170 169 167 167 159 162 159 159 158 159 159
205 217 203 183 235 246 256 182 217 216 285 202 282 303 303 315 314 318 321 321 308 302 302 305 308 306 309 322 208 190 183 168 190 181 174 169 169 166 162 159 157 158 161 157
156 197 217 223 243 272 255 229 200 260 298 311 307 304 310 300 297 303 311 304 290 290 296 299 295 289 299 258 220 216 182 172 174 171 168 170 165 161 157 153 155 153 149 147
186 175 200 192 221 256 234 175 203 267 300 294 298 297 301 294 303 305 310 297 305 309 297 291 287 302 277 228 217 200 181 167 180 173 163 163 161 157 158 155 152 152 150 147
232 203 189 196 215 244 212 217 260 276 282 293 294 297 294 305 309 308 316 311 320 323 320 308 315 317 271 233 209 197 192 165 170 161 154 156 157 155 158 155 154 150 153 153
235 191 239 224 256 246 249 255 261 268 278 286 291 290 299 306 309 313 310 314 322 325 330 330 302 314 334 78 69 241 176 167 159 146 146 150 151 152 158 160 162 157 163 165
225 180 236 250 258 272 260 259 265 271 275 287 284 291 295 298 293 308 307 313 321 326 333 343 345 346 2 3 62 105 159 157 148 149 149 150 155 157 159 168 168 169 180 180
214 237 225 245 259 257 267 275 270 271 286 294 294 300 294 297 290 300 306 311 328 333 342 350 358 8 2 43 69 86 164 162 150 147 154 154 153 158 162 158 155 178 184 184